Wind_Speed
9 11 9 9 9 10 17 17 11 8 11 11 15 9 1 0 5 4 6 7 3 6 25 55 57 59 51 48 49 47 32 33 44 29 34 29 31 31 26 18 16 20 19 18 9 5 8 8 12
12 11 9 13 13 11 16 16 11 7 9 9 9 6 3 4 4 2 1 6 5 4 12 40 60 57 55 51 52 45 36 42 44 39 32 35 31 30 31 28 20 14 11 9 7 6 6 8 11
11 12 11 12 11 13 13 14 10 6 11 9 5 6 6 6 9 7 2 4 5 4 7 30 42 59 57 51 50 52 48 45 52 43 34 32 31 33 24 17 18 14 10 9 10 8 8 12 12
15 17 25 2 9 9 11 11 7 17 14 10 8 8 6 12 13 11 5 5 6 4 6 19 31 47 55 58 47 44 38 46 41 49 34 36 32 21 18 14 15 11 13 12 11 12 12 12 11
22 27 13 7 10 11 12 10 9 10 10 13 11 10 8 6 7 7 7 6 5 4 6 15 21 28 45 64 65 57 52 48 42 44 42 40 38 31 25 22 18 15 18 16 12 10 9 7 10
20 16 5 11 14 14 16 12 10 10 13 16 19 15 10 5 2 4 4 5 3 3 4 9 18 11 28 52 69 70 65 55 44 46 45 44 34 35 32 29 22 19 19 19 19 13 10 13 14
19 17 14 15 15 18 20 18 13 11 13 18 21 18 14 7 3 2 5 7 3 3 3 4 17 9 11 26 55 70 74 64 55 51 47 47 44 35 36 31 26 19 18 21 21 15 10 12 13
18 17 16 17 18 19 20 20 17 14 16 18 19 19 16 10 6 4 6 7 4 5 2 2 10 5 8 15 13 55 70 67 65 59 53 49 45 43 41 34 27 25 22 20 21 12 11 12 15
16 16 17 17 19 19 20 21 22 19 17 17 20 23 18 14 9 6 6 7 6 5 4 0 11 17 13 19 9 29 47 55 61 59 50 45 44 41 36 32 30 27 23 24 23 17 16 15 15
15 13 13 14 19 20 22 24 24 24 22 20 21 23 21 18 12 9 7 4 6 4 8 5 9 19 14 17 14 19 30 37 42 43 40 40 40 43 38 35 32 28 28 26 23 23 19 17 15
16 15 13 16 19 20 23 24 25 25 23 22 21 22 23 21 17 12 8 1 3 5 7 10 8 25 19 14 24 30 25 26 35 33 34 36 39 38 39 35 37 31 33 31 27 26 25 19 15
17 17 18 18 19 20 22 23 26 27 27 26 25 22 23 24 22 16 10 2 1 3 5 9 11 25 24 19 15 22 33 35 33 31 30 39 41 32 43 38 36 37 34 30 30 21 21 23 20
14 15 16 17 19 20 22 24 26 28 29 29 27 24 24 25 23 19 13 5 6 2 3 4 7 11 28 29 22 22 21 30 34 37 33 36 38 35 42 38 36 33 37 30 35 30 25 25 21
13 14 14 15 17 19 20 23 26 27 28 28 29 26 25 23 22 21 18 7 6 4 1 2 2 4 7 17 32 33 29 28 29 36 41 40 31 46 43 40 30 32 27 43 33 30 27 28 20
13 14 16 16 16 16 18 19 22 24 26 26 28 27 26 21 21 21 17 14 3 3 6 3 3 1 4 5 12 27 42 39 36 33 38 45 42 40 42 42 37 33 40 38 36 33 32 31 19
16 15 15 18 18 18 18 19 19 21 23 24 25 27 25 26 23 19 17 14 11 5 8 7 5 5 5 6 8 14 23 28 33 39 39 44 52 47 51 47 43 41 37 49 41 37 37 31 27
21 20 19 20 20 21 21 20 21 21 21 21 23 25 25 25 27 24 18 14 12 9 7 9 14 13 12 10 9 13 18 21 23 26 30 37 44 54 55 57 54 51 51 45 41 35 35 35 32
24 24 23 23 24 24 23 23 21 21 22 21 21 21 24 24 24 25 24 18 15 12 13 10 13 13 14 14 16 15 17 20 21 24 28 31 33 50 64 63 58 53 52 46 42 38 37 35 29
28 28 27 26 27 27 28 26 26 25 23 22 21 22 22 22 24 23 24 24 20 15 14 17 14 15 13 16 20 20 22 23 23 21 21 23 17 14 43 66 67 60 52 50 45 42 37 31 30
27 30 30 28 28 28 27 28 28 28 26 24 24 23 23 24 25 25 25 24 23 21 15 13 17 17 17 12 21 22 22 24 27 24 21 19 14 13 19 33 57 57 57 54 49 42 36 34 35
30 30 32 31 30 30 29 29 30 31 30 26 27 26 26 26 26 29 29 27 24 23 20 17 16 17 18 21 16 13 18 25 28 29 24 20 16 16 23 25 29 48 51 55 47 45 37 37 34
32 32 34 35 35 33 33 34 28 31 29 28 29 27 29 29 29 31 32 33 30 25 22 23 22 21 22 24 28 30 25 25 27 27 26 24 23 19 22 27 32 30 43 50 45 42 40 36 30
33 34 35 37 37 38 34 37 32 30 30 30 29 28 29 30 32 33 35 37 35 32 28 24 25 27 26 26 29 34 45 37 29 35 25 30 30 25 24 24 28 38 39 38 41 41 37 31 27
35 36 36 36 38 39 37 39 38 34 32 32 32 30 31 31 34 36 39 39 37 36 35 33 31 28 31 29 28 32 40 46 41 40 36 29 34 33 28 27 26 27 32 37 35 32 31 28 25
36 37 36 34 37 40 35 40 40 35 36 36 36 34 34 35 36 39 43 42 40 39 37 38 38 35 34 34 31 33 37 43 46 47 40 31 28 41 32 33 32 31 32 32 31 32 31 29 27
33 32 32 34 36 38 38 36 37 39 39 39 39 38 38 38 40 43 44 45 45 45 43 41 41 39 36 40 37 35 37 44 55 59 50 50 46 43 40 39 37 35 35 35 35 35 36 35 32
25 29 29 30 34 34 38 37 35 36 41 40 41 43 43 44 45 47 48 48 48 46 47 47 45 44 43 40 41 37 38 39 51 62 61 59 56 47 45 43 40 38 39 39 39 40 39 39 31
30 26 29 30 30 33 36 38 37 37 42 45 49 49 49 50 51 51 50 49 52 51 50 50 48 46 44 42 42 38 36 36 41 59 63 62 55 48 47 44 43 42 41 41 41 43 43 39 36
29 34 33 36 35 36 40 47 44 45 45 49 53 52 52 53 53 52 52 52 52 54 54 53 53 50 45 41 40 40 36 35 37 54 64 64 60 53 51 49 48 46 44 42 43 46 46 41 39
36 39 40 41 44 46 49 52 54 53 54 54 57 57 56 55 55 55 55 55 55 56 56 57 55 53 47 42 40 38 38 35 36 51 65 66 62 58 54 52 51 48 45 46 45 46 47 43 40
Wind_Direction
76 48 22 18 351 24 11 356 2 352 345 327 346 13 322 101 145 88 102 95 87 210 212 211 211 214 217 209 213 213 220 215 227 229 233 231 234 236 241 223 226 235 254 265 264 293 347 6 24
64 32 22 9 8 351 358 348 349 348 339 332 347 14 62 297 340 279 6 109 57 325 221 207 215 213 215 216 215 213 204 210 224 226 237 234 240 231 234 233 244 262 239 248 235 260 319 352 3
52 52 36 27 2 348 345 342 352 11 347 321 341 321 286 215 285 283 296 152 78 33 235 199 208 215 212 213 217 222 219 220 227 227 233 229 231 222 212 226 236 223 235 226 232 264 307 327 336
60 51 61 87 3 5 347 354 26 10 325 335 1 346 309 256 282 264 236 183 109 100 205 203 205 209 213 210 203 203 205 215 224 223 207 217 229 205 225 220 234 214 210 232 247 266 282 310 320
61 41 22 41 27 27 17 15 19 286 320 2 18 12 343 302 283 229 200 181 128 111 164 204 200 214 215 215 216 204 204 204 222 214 216 223 225 238 246 227 222 219 229 241 252 281 289 294 330
66 133 33 35 29 16 16 19 25 13 9 7 10 13 7 350 335 94 163 176 113 111 146 205 200 203 215 221 218 217 209 198 213 209 214 218 222 235 238 233 231 232 238 242 252 265 267 299 326
55 56 48 40 27 24 21 17 20 11 5 12 7 4 11 14 10 326 102 149 87 57 100 212 213 221 220 215 220 221 219 213 203 209 214 219 224 227 233 235 233 234 240 248 261 250 256 290 315
50 47 43 38 33 30 26 26 23 10 5 6 6 2 10 16 18 51 80 144 134 58 48 233 200 191 199 214 212 214 219 219 220 228 230 231 232 238 235 236 224 230 246 243 247 237 261 278 292
49 47 44 35 36 33 29 26 26 21 14 8 8 9 12 19 26 37 44 157 132 82 88 43 185 190 190 218 242 196 202 212 219 224 232 234 236 234 226 227 219 235 238 237 233 256 268 266 284
40 41 43 42 39 36 36 31 26 24 22 17 18 16 18 22 28 35 25 160 135 99 109 76 163 181 192 203 168 184 188 194 209 214 221 227 231 229 224 212 217 227 232 229 237 248 251 259 279
37 36 32 31 34 35 33 32 29 29 29 21 21 17 22 23 25 29 28 142 109 64 106 84 131 174 202 197 175 191 183 208 206 208 219 218 222 221 216 216 215 222 225 237 240 236 244 257 269
33 34 31 32 31 28 32 30 32 32 31 26 22 18 19 22 24 29 24 117 93 54 62 102 99 182 188 203 204 187 192 197 205 207 208 212 215 222 212 213 220 225 227 232 232 231 241 252 269
21 23 24 27 28 25 25 26 29 31 32 28 25 16 18 20 20 23 38 118 155 61 21 70 110 132 200 201 212 203 204 208 209 208 207 214 209 213 215 222 224 233 232 230 229 243 247 256 272
350 356 3 10 13 15 14 19 22 26 30 26 29 25 19 13 15 15 18 46 198 197 166 336 87 148 158 200 219 217 211 210 215 214 213 208 218 218 216 217 217 224 240 226 234 238 242 255 252
327 333 334 338 344 351 360 4 11 16 25 24 24 23 20 17 7 10 10 1 20 264 251 246 240 186 221 231 213 219 218 215 218 217 217 214 215 215 226 219 219 238 224 231 232 234 243 248 255
306 313 324 327 328 331 333 341 352 359 6 22 22 18 18 13 5 3 4 5 342 320 233 255 239 260 242 245 236 206 213 218 223 224 223 218 219 226 230 229 225 218 225 228 232 236 240 249 254
300 297 301 311 316 325 330 331 333 339 347 358 15 16 13 13 6 355 357 354 344 316 289 256 251 251 271 245 214 206 204 209 218 224 225 228 233 232 227 229 223 224 226 231 233 235 244 249 259
300 298 297 300 305 310 316 321 326 329 333 342 350 5 13 6 5 356 347 351 346 328 306 275 265 257 258 254 227 214 210 221 228 236 238 243 250 238 229 224 222 225 228 229 234 236 245 252 260
298 296 296 299 301 301 305 310 313 317 325 330 337 340 354 1 0 354 349 344 340 340 321 306 289 270 283 252 231 233 233 233 238 242 255 258 267 238 234 223 222 225 226 230 233 240 247 247 249
295 293 293 293 294 295 295 299 302 305 309 315 320 329 335 343 351 348 345 342 335 331 326 300 293 288 283 260 238 236 238 241 243 245 249 251 255 240 246 228 222 223 225 231 233 241 240 251 253
295 291 289 289 289 291 292 295 296 300 303 306 310 316 324 327 335 339 338 337 330 324 319 305 288 280 275 276 238 244 259 255 240 246 247 248 248 243 226 229 225 225 227 233 235 235 238 242 252
291 292 289 287 289 289 291 290 293 298 301 306 305 312 316 319 324 329 332 331 327 321 314 307 296 281 271 260 256 245 240 266 239 239 260 249 247 237 230 221 220 225 230 229 233 234 235 239 238
289 286 284 285 286 289 291 292 294 298 300 302 305 306 308 311 315 321 327 325 322 319 315 305 297 290 283 268 260 260 245 248 239 234 234 253 236 234 224 220 216 220 221 226 229 231 235 225 218
287 283 282 280 282 284 287 288 292 297 298 302 303 303 305 308 311 317 320 320 317 313 310 306 303 294 286 285 272 264 255 245 234 229 218 235 234 228 226 219 208 210 217 222 221 216 211 207 203
287 282 283 278 278 281 283 288 293 295 299 300 302 303 304 305 309 314 315 316 314 310 306 304 302 299 290 285 278 271 258 245 231 226 218 222 256 225 221 220 209 208 209 211 210 206 205 200 189
284 279 277 276 278 281 287 285 290 295 295 296 299 301 301 304 309 310 311 311 309 308 304 301 299 297 292 287 282 280 268 246 232 225 214 213 220 222 220 220 211 207 210 211 209 205 201 201 188
281 281 277 278 280 284 288 290 288 289 292 295 297 300 303 304 305 307 308 307 304 302 299 297 298 296 294 289 285 282 276 257 236 224 221 220 224 224 219 219 212 208 211 210 207 202 203 199 191
276 276 280 281 284 289 289 286 288 289 293 296 297 299 301 302 304 304 304 303 300 299 298 297 295 293 290 289 284 281 277 265 239 222 216 218 219 221 218 215 214 209 210 208 208 206 200 195 197
272 282 278 282 283 284 285 286 289 292 293 292 294 297 299 299 300 300 300 299 297 298 297 296 295 294 291 287 281 279 274 264 242 217 210 210 212 212 212 214 210 211 209 206 207 205 201 197 201
286 283 282 284 286 289 289 290 295 297 296 298 297 297 297 296 297 298 299 299 297 295 296 294 294 293 292 286 279 272 271 261 242 214 207 206 209 207 208 213 212 209 208 207 206 205 205 205 204
Height
10956 10957 10957 10957 10956 10954 10952 10950 10947 10946 10946 10945 10943 10942 10943 10942 10940 10940 10939 10939 10940 10941 10942 10947 10949 10952 10957 10965 10971 10974 10979 10977 10980 10983 10985 10989 10991 10995 10997 10998 10999 11001 11001 11003 11004 11004 11002 11001 11000
10957 10959 10958 10958 10957 10953 10951 10949 10947 10945 10944 10944 10942 10940 10940 10940 10939 10939 10937 10935 10935 10934 10934 10937 10942 10948 10953 10959 10964 10970 10975 10972 10978 10980 10984 10987 10991 10993 10995 10997 10999 11000 11002 11003 11004 11004 11003 11001 11000
10959 10961 10960 10958 10955 10952 10950 10948 10946 10944 10943 10942 10940 10938 10938 10936 10936 10936 10935 10933 10931 10930 10929 10932 10937 10943 10948 10955 10960 10965 10968 10971 10975 10980 10981 10985 10990 10991 10992 10995 10998 11000 11002 11003 11003 11003 11003 11002 11001
10962 10964 10964 10952 10957 10952 10949 10947 10945 10943 10942 10940 10937 10936 10935 10934 10933 10933 10933 10930 10928 10928 10928 10930 10933 10938 10943 10950 10955 10961 10964 10967 10973 10977 10981 10984 10989 10989 10992 10994 10997 10999 11001 11002 11003 11003 11003 11002 11002
10967 10966 10969 10964 10958 10952 10948 10946 10943 10942 10941 10938 10936 10934 10933 10930 10929 10929 10929 10928 10925 10925 10926 10927 10931 10934 10938 10943 10949 10956 10958 10961 10968 10974 10977 10981 10985 10988 10991 10994 10997 10999 11001 11002 11002 11003 11003 11003 11002
10969 10973 10969 10962 10956 10952 10948 10945 10943 10941 10939 10937 10935 10933 10930 10927 10926 10925 10925 10926 10923 10923 10924 10924 10926 10929 10932 10933 10940 10947 10953 10957 10964 10970 10975 10979 10983 10986 10990 10992 10995 10997 10999 11001 11002 11003 11002 11002 11002
10967 10966 10963 10959 10955 10951 10947 10944 10943 10940 10938 10936 10933 10930 10928 10925 10923 10922 10922 10924 10923 10922 10922 10922 10922 10924 10924 10925 10930 10936 10945 10955 10959 10965 10971 10976 10980 10983 10986 10989 10993 10996 10997 10999 11001 11002 11001 11003 11002
10967 10964 10961 10958 10955 10952 10949 10946 10944 10940 10937 10935 10932 10928 10925 10923 10922 10921 10920 10921 10923 10920 10920 10919 10920 10920 10921 10923 10925 10926 10938 10948 10954 10959 10964 10971 10976 10979 10982 10986 10990 10993 10996 10997 10999 11000 11000 11002 11002
10968 10966 10962 10959 10956 10954 10951 10948 10944 10940 10937 10935 10931 10926 10922 10921 10920 10919 10919 10919 10920 10919 10919 10917 10918 10921 10923 10923 10924 10926 10931 10943 10950 10957 10961 10966 10972 10977 10979 10984 10987 10990 10992 10995 10997 10998 10999 11001 11002
10969 10967 10964 10962 10959 10956 10952 10949 10944 10941 10938 10934 10930 10926 10922 10920 10918 10917 10917 10918 10919 10919 10918 10918 10917 10922 10924 10926 10927 10931 10935 10940 10948 10956 10960 10965 10970 10975 10977 10981 10984 10986 10990 10992 10995 10997 10997 10999 11000
10970 10967 10964 10962 10960 10957 10953 10950 10946 10942 10939 10935 10931 10927 10923 10920 10918 10917 10916 10917 10918 10919 10919 10919 10918 10922 10926 10929 10932 10936 10940 10944 10947 10952 10956 10960 10966 10970 10975 10979 10982 10984 10986 10989 10992 10993 10995 10998 10998
10971 10968 10965 10963 10960 10957 10955 10951 10947 10943 10939 10935 10931 10928 10924 10921 10919 10917 10916 10915 10917 10917 10918 10919 10920 10923 10926 10929 10934 10937 10940 10944 10947 10951 10955 10958 10963 10968 10971 10976 10980 10982 10984 10987 10989 10991 10992 10994 10996
10973 10970 10967 10964 10962 10959 10956 10952 10948 10945 10940 10937 10933 10928 10926 10923 10920 10918 10917 10915 10916 10918 10919 10919 10922 10923 10926 10929 10932 10935 10939 10942 10945 10949 10953 10956 10960 10963 10967 10972 10977 10979 10981 10983 10986 10988 10990 10992 10994
10974 10971 10968 10965 10963 10960 10957 10954 10950 10946 10941 10938 10935 10931 10927 10925 10922 10919 10918 10918 10918 10918 10919 10920 10920 10922 10926 10927 10930 10933 10935 10938 10942 10946 10949 10953 10956 10958 10962 10967 10971 10974 10978 10979 10982 10985 10988 10989 10991
10973 10972 10968 10965 10963 10960 10958 10954 10951 10948 10944 10940 10935 10932 10928 10927 10923 10921 10919 10918 10919 10919 10920 10921 10921 10920 10922 10925 10927 10928 10931 10934 10938 10942 10946 10950 10952 10955 10958 10962 10967 10971 10972 10975 10978 10982 10985 10986 10987
10972 10970 10967 10964 10961 10959 10957 10954 10951 10948 10945 10942 10937 10932 10929 10926 10925 10922 10919 10918 10917 10919 10920 10920 10921 10921 10920 10921 10922 10924 10929 10931 10934 10937 10941 10945 10948 10950 10952 10957 10961 10963 10965 10970 10974 10977 10980 10982 10983
10967 10967 10965 10962 10959 10957 10954 10952 10949 10947 10944 10942 10938 10934 10930 10927 10925 10922 10920 10917 10915 10915 10915 10917 10917 10918 10919 10920 10921 10922 10926 10929 10932 10935 10937 10939 10941 10943 10945 10948 10953 10957 10961 10967 10970 10973 10976 10978 10980
10963 10961 10960 10958 10957 10953 10951 10948 10948 10946 10944 10940 10938 10935 10931 10927 10925 10922 10918 10916 10914 10912 10911 10911 10914 10914 10915 10918 10918 10920 10922 10925 10928 10930 10932 10933 10932 10930 10932 10938 10944 10950 10957 10962 10965 10969 10971 10973 10975
10958 10956 10956 10954 10952 10950 10947 10944 10942 10942 10941 10938 10936 10933 10929 10927 10924 10921 10917 10912 10911 10909 10908 10906 10908 10910 10911 10913 10914 10916 10919 10921 10922 10922 10923 10922 10919 10915 10917 10924 10934 10943 10950 10955 10959 10962 10965 10968 10969
10953 10952 10951 10950 10948 10946 10944 10941 10940 10938 10938 10935 10932 10929 10925 10923 10920 10918 10915 10911 10907 10905 10905 10903 10902 10903 10904 10907 10908 10911 10913 10914 10916 10917 10916 10915 10914 10915 10916 10919 10928 10936 10944 10947 10952 10956 10961 10963 10966
10947 10946 10944 10944 10942 10940 10939 10937 10935 10933 10932 10931 10927 10923 10920 10917 10916 10913 10910 10908 10905 10902 10899 10899 10898 10898 10898 10899 10904 10905 10906 10905 10904 10912 10914 10913 10912 10913 10914 10917 10922 10930 10935 10941 10947 10950 10955 10958 10959
10940 10939 10937 10936 10935 10934 10931 10929 10932 10927 10927 10924 10921 10919 10915 10911 10910 10907 10904 10901 10900 10898 10896 10892 10892 10892 10892 10892 10893 10896 10895 10893 10900 10907 10912 10910 10911 10910 10912 10913 10917 10924 10930 10935 10941 10944 10948 10951 10954
10934 10932 10930 10929 10928 10926 10925 10920 10921 10922 10919 10917 10914 10913 10910 10907 10903 10901 10898 10895 10892 10890 10888 10888 10886 10884 10884 10884 10885 10885 10883 10887 10893 10901 10904 10902 10905 10908 10909 10909 10911 10918 10925 10930 10935 10939 10943 10947 10950
10927 10925 10924 10922 10920 10918 10919 10914 10912 10913 10911 10909 10906 10905 10903 10900 10896 10893 10890 10888 10885 10881 10879 10877 10877 10877 10874 10873 10875 10874 10872 10877 10887 10890 10893 10897 10900 10903 10905 10908 10906 10912 10919 10924 10928 10934 10938 10943 10946
10918 10916 10915 10914 10912 10909 10912 10906 10904 10905 10901 10898 10897 10896 10894 10892 10889 10885 10880 10878 10876 10873 10870 10867 10865 10865 10864 10863 10863 10862 10862 10866 10873 10877 10885 10894 10894 10898 10900 10905 10902 10906 10912 10918 10924 10928 10934 10939 10944
10908 10906 10906 10905 10903 10901 10900 10901 10899 10896 10894 10892 10888 10886 10884 10881 10879 10876 10873 10869 10865 10861 10859 10858 10855 10853 10853 10850 10850 10849 10848 10850 10855 10862 10873 10877 10879 10888 10894 10897 10897 10900 10906 10911 10917 10921 10926 10932 10939
10901 10897 10897 10896 10894 10895 10891 10890 10889 10891 10884 10883 10880 10877 10874 10871 10869 10866 10862 10858 10854 10853 10849 10845 10843 10840 10836 10836 10834 10834 10832 10832 10835 10844 10856 10862 10871 10880 10886 10891 10892 10895 10900 10904 10909 10915 10920 10925 10931
10891 10892 10889 10889 10889 10887 10883 10881 10880 10882 10877 10873 10869 10866 10864 10860 10857 10854 10851 10849 10843 10840 10837 10833 10832 10829 10826 10822 10819 10820 10819 10816 10817 10827 10839 10852 10862 10871 10878 10883 10888 10891 10895 10901 10907 10913 10915 10922 10927
10885 10881 10882 10880 10881 10880 10877 10870 10869 10869 10867 10864 10859 10856 10854 10850 10846 10843 10839 10836 10832 10825 10822 10819 10814 10813 10812 10810 10807 10804 10806 10805 10806 10812 10826 10837 10847 10856 10867 10874 10879 10886 10891 10898 10902 10909 10914 10918 10926
10873 10871 10870 10870 10868 10866 10863 10858 10852 10853 10851 10849 10844 10841 10839 10836 10834 10830 10824 10820 10817 10813 10808 10802 10799 10796 10796 10795 10794 10791 10790 10794 10796 10803 10815 10825 10836 10843 10856 10867 10873 10879 10888 10893 10899 10904 10911 10917 10920